Home > Time Zones > World Clock > Weather > France > Lens > Past weeks

Flag for France Weather past 2 weeks in Lens, France

Now
41 °F

Clear.


Feels Like: 35 °F
Forecast: 38 / 49 °F
Wind: 9 mph from Southwest

Location: Lille Airport

Current Time: Dec 20, 2014 at 2:45:50 AM

Latest Report: Dec 20, 2014 at 2:00 AM


Visibility: N/A

Pressure: 30.24 "Hg

Humidity: 81%

Dew point: 36 °F

Location of LensLocation

Historic Weather in Lens — Graph

°F

Lens temperature yesterday

Maximum temperature yesterday: 54 °F (at 12:00 AM)
Minimum temperature yesterday: 39 °F (at 10:00 PM)
Average temperature yesterday: 49 °F

Past Weeks' High & Low Weather Summary

 TemperatureHumidityPressure
High55 °F (Dec 18, 12:00 PM)100% (Dec 5, 5:35 AM)30.39 "Hg (Dec 5, 5:35 AM)
Low28 °F (Dec 14, 5:00 AM)58% (Dec 10, 2:00 PM)29.42 "Hg (Dec 12, 12:30 PM)
Average42 °F91%29.98 "Hg
* Reported Dec 5 1:00 AM — Dec 20 1:30 AM, Lens, Weather by CustomWeather, © 2014

Note: Actual official high and low records may vary slightly from our data, if they occured in-between our weather recording intervals... More about our weather records

Advertising

Lens weather history for previous 24 hours

 ConditionsComfort  
Time TempWeatherWind HumidityBarometerVisibility
1:30 AM
Dec 20
41 °FClear.8 mph81%30.24 "HgN/A
1:00 AM41 °FClear.10 mph81%30.24 "Hg10 mi
12:30 AM41 °FClear.8 mph81%30.24 "Hg10 mi
12:00 AM41 °FClear.8 mph81%30.21 "Hg10 mi
11:30 PM
Dec 19
39 °FClear.8 mph87%30.21 "Hg10 mi
11:00 PM39 °FClear.9 mph87%30.21 "Hg10 mi
10:30 PM41 °FClear.10 mph81%30.21 "Hg10 mi
10:00 PM39 °FClear.9 mph87%30.21 "Hg10 mi
9:30 PM41 °FClear.8 mph87%30.18 "Hg10 mi
9:00 PM41 °FClear.7 mph81%30.18 "Hg10 mi
8:30 PM41 °FClear.8 mph81%30.18 "Hg10 mi
8:00 PM41 °FClear.9 mph87%30.15 "Hg10 mi
7:30 PM43 °FClear.10 mph81%30.15 "Hg10 mi
7:00 PM45 °FClear.10 mph76%30.12 "Hg10 mi
6:30 PM45 °FClear.10 mph81%30.09 "Hg10 mi
6:00 PM45 °FClear.10 mph81%30.09 "Hg10 mi
5:30 PM46 °FPassing clouds.8 mph76%30.07 "HgN/A
5:00 PM46 °FPassing clouds.6 mph76%30.07 "HgN/A
4:30 PM48 °FPartly sunny.9 mph71%30.04 "HgN/A
4:00 PM48 °FPartly sunny.10 mph76%30.04 "HgN/A
3:30 PM48 °FPartly sunny.14 mph76%30.01 "HgN/A
3:00 PM50 °FPartly sunny.16 mph76%30.01 "HgN/A
2:30 PM50 °FBroken clouds.10 mph88%29.98 "HgN/A
1:37 PM50 °FBroken clouds.12 mph94%29.98 "HgN/A
1:00 PM50 °FLight rain. Partly sunny.10 mph94%29.95 "HgN/A
12:30 PM54 °FLight rain. Low clouds.20 mph94%29.92 "Hg3 mi
12:00 PM54 °FLight rain. Overcast.20 mph94%29.92 "Hg4 mi
11:30 AM54 °FLight rain. Overcast.20 mph94%29.92 "HgN/A
11:00 AM54 °FLight rain. Overcast.20 mph94%29.92 "HgN/A
10:30 AM54 °FLight rain. Overcast.21 mph94%29.92 "Hg4 mi
10:00 AM54 °FLight rain. Low clouds.17 mph94%29.89 "Hg4 mi
9:00 AM52 °FLight rain. Low clouds.18 mph94%29.89 "Hg4 mi
8:30 AM52 °FLight rain. Low clouds.20 mph94%29.89 "Hg5 mi
8:00 AM52 °FLight rain. Low clouds.21 mph94%29.89 "Hg5 mi
7:30 AM52 °FLight rain. Overcast.20 mph94%29.89 "HgN/A
7:00 AM52 °FLight rain. Overcast.21 mph94%29.89 "HgN/A
6:30 AM52 °FLight rain. Overcast.21 mph94%29.92 "HgN/A
6:00 AM54 °FOvercast.21 mph88%29.92 "HgN/A
5:30 AM54 °FOvercast.21 mph88%29.92 "HgN/A
4:20 AM54 °FOvercast.20 mph88%29.95 "HgN/A
4:00 AM54 °FLow clouds.16 mph94%29.95 "HgN/A
3:30 AM54 °FLow clouds.17 mph94%29.95 "HgN/A
3:00 AM54 °FOvercast.18 mph88%29.95 "HgN/A
2:30 AM54 °FOvercast.17 mph88%29.95 "HgN/A
2:00 AM54 °FOvercast.20 mph88%29.98 "HgN/A
Weather by CustomWeather, © 2014

See weather overviewHow to use our weather pages